Date String (YYYY-MM-DD hh:mm:ss) UTC,Instrument flags,Ambient pressure (hPa),Sample flow (lpm),Bypass flow (lpm),Sample temperature (°C),Ambient temperature (°C),ASC tube jacket temperature (°C),LED temperature (°C),Box temperature (°C),Sample RH (%),Span deviation,Mass concentration (μg/m³),Mass concentration (μg/m³),Mass concentration (μg/m³)
DateTimeUTC,F1_M11,P_M11,Q1_M11,Q2_M11,T1_M11,T2_M11,T3_M11,T4_M11,T5_M11,U1_M11,ZSPAN_M11,X0_M11,X2_M11,X1_M11
2021-12-03 12:00:00,,0828.9,5.01,0.00,28.3,27.4,00.0,37.4,30.0,09.2,0000.0,0013.84,0004.10,0002.95
2021-12-03 12:01:00,,0828.9,4.99,0.00,28.3,27.4,00.0,37.4,30.0,09.3,0000.0,0013.28,0004.11,0003.00
2021-12-03 12:02:00,,0828.9,5.00,0.00,28.3,27.4,00.0,37.4,30.0,09.3,0000.0,0013.06,0004.15,0003.05
2021-12-03 12:03:00,,0829.0,5.02,0.00,28.3,27.3,00.0,37.4,30.0,09.4,0000.0,0013.10,0004.15,0003.07
2021-12-03 12:04:00,,0829.1,4.99,0.00,28.3,27.3,00.0,37.4,30.0,09.4,0000.0,0013.38,0004.15,0003.06
2021-12-03 12:05:00,,0829.1,4.99,0.00,28.3,27.3,00.0,37.3,30.0,09.3,0000.0,0014.18,0004.19,0003.08
2021-12-03 12:06:00,,0829.3,5.00,0.00,28.3,27.3,00.0,37.3,29.9,09.3,0000.0,0014.68,0004.20,0003.10
2021-12-03 12:07:00,,0829.2,5.02,0.00,28.2,27.3,00.0,37.3,29.9,09.4,0000.0,0014.43,0004.16,0003.11
2021-12-03 12:08:00,,0829.2,5.00,0.00,28.2,27.3,00.0,37.3,30.0,09.5,0000.0,0014.64,0004.19,0003.12
2021-12-03 12:09:00,,0829.2,5.00,0.00,28.2,27.3,00.0,37.3,30.0,09.5,0000.0,0014.18,0004.18,0003.09
2021-12-03 12:10:00,,0829.2,5.00,0.00,28.2,27.3,00.0,37.3,29.9,09.6,0000.0,0012.87,0004.15,0003.06
2021-12-03 12:11:00,,0829.2,5.01,0.00,28.2,27.3,00.0,37.3,29.9,09.7,0000.0,0012.74,0004.14,0003.02
2021-12-03 12:12:00,,0829.2,4.99,0.00,28.2,27.2,00.0,37.3,29.9,09.8,0000.0,0012.96,0004.13,0002.99
2021-12-03 12:13:00,,0829.3,5.00,0.00,28.2,27.2,00.0,37.3,29.9,09.8,0000.0,0012.99,0004.12,0002.96
2021-12-03 12:14:00,,0829.3,5.00,0.00,28.2,27.2,00.0,37.3,29.8,09.8,0000.0,0012.89,0004.07,0002.93
2021-12-03 12:15:00,,0829.4,5.01,0.00,28.1,27.2,00.0,37.2,29.8,09.8,0000.0,0013.61,0004.08,0002.89
2021-12-03 12:16:00,,0829.5,4.99,0.00,28.1,27.2,00.0,37.2,29.8,09.8,0000.0,0013.42,0004.10,0002.88
2021-12-03 12:17:00,,0829.5,5.00,0.00,28.1,27.2,00.0,37.2,29.8,09.8,0000.0,0012.66,0004.06,0002.84
2021-12-03 12:18:00,,0829.5,5.00,0.00,28.1,27.2,00.0,37.2,29.8,09.8,0000.0,0012.83,0004.04,0002.81
2021-12-03 12:19:00,,0829.6,4.99,0.00,28.1,27.2,00.0,37.2,29.9,09.8,0000.0,0012.61,0004.04,0002.81
2021-12-03 12:20:00,,0829.6,5.00,0.00,28.1,27.2,00.0,37.2,29.8,09.8,0000.0,0011.35,0003.97,0002.80
2021-12-03 12:21:00,,0829.6,5.00,0.00,28.1,27.2,00.0,37.2,29.8,09.8,0000.0,0011.34,0003.98,0002.79
2021-12-03 12:22:00,,0829.6,4.99,0.00,28.1,27.2,00.0,37.2,29.8,09.8,0000.0,0010.96,0003.96,0002.79
2021-12-03 12:23:00,,0829.5,4.99,0.00,28.1,27.2,00.0,37.2,29.8,09.8,0000.0,0010.49,0003.95,0002.79
2021-12-03 12:24:00,,0829.6,5.00,0.00,28.1,27.2,00.0,37.2,29.8,09.8,0000.0,0010.52,0003.98,0002.79
2021-12-03 12:25:00,,0829.6,5.00,0.00,28.1,27.2,00.0,37.2,29.8,09.8,0000.0,0010.95,0004.00,0002.81
2021-12-03 12:26:00,,0829.7,5.00,0.00,28.1,27.2,00.0,37.2,29.8,09.9,0000.0,0011.54,0004.01,0002.82
2021-12-03 12:27:00,,0829.8,5.02,0.00,28.1,27.2,00.0,37.1,29.8,09.9,0000.0,0012.20,0004.03,0002.81
2021-12-03 12:28:00,,0829.8,4.99,0.00,28.1,27.2,00.0,37.1,29.8,09.9,0000.0,0012.90,0004.00,0002.80
2021-12-03 12:29:00,,0829.8,5.02,0.00,28.1,27.2,00.0,37.1,29.8,09.9,0000.0,0012.56,0004.00,0002.80
2021-12-03 12:30:00,,0829.9,5.00,0.00,28.1,27.2,00.0,37.1,29.8,09.9,0000.0,0013.12,0004.02,0002.79
2021-12-03 12:31:00,,0829.8,5.00,0.00,28.1,27.1,00.0,37.1,29.8,09.9,0000.0,0013.33,0004.08,0002.79
2021-12-03 12:32:00,,0829.8,5.00,0.00,28.1,27.1,00.0,37.1,29.8,09.9,0000.0,0013.45,0004.10,0002.78
2021-12-03 12:33:00,,0829.9,5.00,0.00,28.1,27.1,00.0,37.1,29.8,10.0,0000.0,0013.76,0004.14,0002.80
2021-12-03 12:34:00,,0829.9,5.01,0.00,28.1,27.1,00.0,37.1,29.8,10.0,0000.0,0013.64,0004.14,0002.80
2021-12-03 12:35:00,,0830.0,5.00,0.00,28.1,27.1,00.0,37.1,29.8,10.0,0000.0,0013.84,0004.12,0002.80
2021-12-03 12:36:00,,0830.0,4.99,0.00,28.1,27.1,00.0,37.1,29.8,10.0,0000.0,0013.43,0004.12,0002.79
2021-12-03 12:37:00,,0830.0,5.01,0.00,28.1,27.1,00.0,37.1,29.8,10.0,0000.0,0012.43,0004.13,0002.79
2021-12-03 12:38:00,,0830.1,5.00,0.00,28.1,27.1,00.0,37.1,29.8,10.0,0000.0,0011.02,0004.05,0002.78
2021-12-03 12:39:00,,0830.1,4.99,0.00,28.1,27.1,00.0,37.1,29.8,10.1,0000.0,0011.01,0004.05,0002.77
2021-12-03 12:40:00,,0830.1,5.01,0.00,28.1,27.1,00.0,37.1,29.8,10.1,0000.0,0012.28,0004.04,0002.76
2021-12-03 12:41:00,,0830.1,4.98,0.00,28.1,27.1,00.0,37.1,29.8,10.1,0000.0,0011.94,0004.02,0002.74
2021-12-03 12:42:00,,0830.1,5.02,0.00,28.1,27.1,00.0,37.1,29.8,10.1,0000.0,0012.02,0003.97,0002.72
2021-12-03 12:43:00,,0830.2,4.99,0.00,28.1,27.1,00.0,37.1,29.8,10.1,0000.0,0011.98,0003.95,0002.73
2021-12-03 12:44:00,,0830.2,4.99,0.00,28.1,27.1,00.0,37.1,29.8,10.1,0000.0,0012.10,0003.97,0002.71
2021-12-03 12:45:00,,0830.2,5.02,0.00,28.0,27.1,00.0,37.1,29.8,10.2,0000.0,0012.46,0004.02,0002.72
2021-12-03 12:46:00,,0830.2,5.00,0.00,28.0,27.1,00.0,37.1,29.8,10.2,0000.0,0013.03,0004.05,0002.72
2021-12-03 12:47:00,,0830.3,4.99,0.00,28.0,27.1,00.0,37.0,29.8,10.2,0000.0,0013.54,0004.08,0002.71
2021-12-03 12:48:00,,0830.4,5.01,0.00,28.0,27.1,00.0,37.0,29.8,10.2,0000.0,0013.36,0004.05,0002.70
2021-12-03 12:49:00,,0830.4,5.00,0.00,28.0,27.1,00.0,37.0,29.8,10.2,0000.0,0013.32,0004.09,0002.71
2021-12-03 12:50:00,,0830.4,4.99,0.00,28.0,27.1,00.0,37.0,29.8,10.3,0000.0,0012.40,0004.09,0002.73
2021-12-03 12:51:00,,0830.4,5.01,0.00,28.0,27.0,00.0,37.0,29.8,10.3,0000.0,0011.25,0004.08,0002.73
2021-12-03 12:52:00,,0830.4,4.99,0.00,28.0,27.0,00.0,37.0,29.8,10.3,0000.0,0011.16,0004.09,0002.75
2021-12-03 12:53:00,,0830.4,5.00,0.00,28.0,27.0,00.0,37.0,29.8,10.3,0000.0,0010.99,0004.13,0002.77
2021-12-03 12:54:00,,0830.4,5.01,0.00,28.0,27.0,00.0,37.0,29.8,10.3,0000.0,0010.99,0004.19,0002.78
2021-12-03 12:55:00,,0830.4,5.01,0.00,28.0,27.0,00.0,37.0,29.8,10.3,0000.0,0011.19,0004.25,0002.80
2021-12-03 12:56:00,,0830.5,5.00,0.00,28.0,27.0,00.0,37.0,29.8,10.3,0000.0,0012.37,0004.28,0002.80
2021-12-03 12:57:00,,0830.6,4.99,0.00,28.0,27.0,00.0,37.0,29.8,10.4,0000.0,0013.12,0004.33,0002.82
2021-12-03 12:58:00,,0830.6,5.01,0.00,28.0,27.0,00.0,37.0,29.8,10.4,0000.0,0012.82,0004.31,0002.83
2021-12-03 12:59:00,,0830.6,4.99,0.00,28.0,27.0,00.0,37.0,29.8,10.4,0000.0,0013.24,0004.39,0002.86
